User: anonymous   Login
Location: Unspecified
(0.0000°N, 0.0000°E)
Time: 10:14:51
(UTC+00:00)
Language:

COSMOS 2468 - Orbit

View from above orbital plane
View from above orbital plane
View from above satellite
View from above satellite

Ground track
Ground track

The orbit data is extracted from the following two-line orbital elements,

1 37154U 10043C   19081.71716794 +.00000036 +00000-0 +18532-3 0  9990
2 37154 082.4567 277.2169 0013797 316.1788 043.8200 12.43647797387341
Epoch (UTC): 22 March 2019 17:12:43
Eccentricity: 0.0013797
inclination: 82.4567°
perigee height: 1480 km
apogee height: 1502 km
right ascension of ascending node: 277.2169°
argument of perigee: 316.1788°
revolutions per day: 12.43647797
mean anomaly at epoch: 43.8200°
orbit number at epoch: 38734

The dashed part of the orbit path shows where the satellite is in the earth's shadow,  

DLR